This demonstration page uses our WeatherBlox Daily Observations layout. Learn more.

Left ArrowRight Arrow

Hourly Observations for January 11, 2019

Temp ( °F °C ) Dew Point ( °F °C ) Humidity (%) Winds ( mph kmh ) Pressure ( in mb ) Visibility ( mi km ) Precip ( " mm )
12:51 am 00:51 Clear with Mist and Fog 38 3.3 38 3.3 100 100 N 5 7 30.07 1018 6 10 N/A
1:51 am 01:51 Mostly Cloudy 37 2.8 37 2.8 100 100 VRB 3 6 30.07 1018 10 16 N/A
2:51 am 02:51 Mostly Cloudy 38 3.3 38 3.3 100 100 N N/A 30.07 1018 10 16 N/A
3:16 am 03:16 Mostly Clear 37 3 36 2 93 93 N N/A 30.15 1021 7 11 N/A
3:27 am 03:27 Mostly Cloudy with Mist and Fog 36 2.2 36 2.2 100 100 N N/A 30.18 1022 3 4 N/A
3:29 am 03:29 Mostly Cloudy with Mist and Fog 36 2.2 36 2.2 100 100 N N/A 30.18 1022 1 1 N/A
3:51 am 03:51 Mostly Cloudy with Fog 36 2.2 36 2.2 100 100 E 5 7 30.06 1018 0 0 N/A
4:51 am 04:51 Mostly Cloudy with Fog 37 2.8 37 2.8 100 100 N N/A 30.05 1018 0 0 N/A
5:22 am 05:22 Cloudy with Fog 36 2 36 2 100 100 NE 3 6 30.18 1022 1 1 N/A
5:51 am 05:51 Cloudy with Fog 36 2.2 36 2.2 100 100 N N/A 30.06 1018 1 1 N/A
5:59 am 05:59 Cloudy with Fog 37 2.8 37 2.8 100 100 SE 3 6 30.18 1022 1 1 N/A
6:51 am 06:51 Mostly Cloudy with Fog 38 3.3 38 3.3 100 100 SE 3 6 30.07 1018 1 1 N/A
7:51 am 07:51 Cloudy with Mist and Fog 38 3.3 38 3.3 100 100 ESE 3 6 30.08 1019 1 2 N/A
7:57 am 07:57 Cloudy with Mist and Fog 39 3.9 39 3.9 100 100 N N/A 30.15 1021 3 5 N/A
11:16 am 11:16 Mostly Cloudy 48 8.9 44 6.7 86 86 E 3 6 30.12 1020 10 16 N/A
11:32 am 11:32 Partly Cloudy 49 9.4 44 6.7 83 83 N N/A 30.09 1019 10 16 N/A
11:51 am 11:51 Sunny 49 9.4 45 7.2 86 86 SSW 5 7 30.06 1018 10 16 N/A
12:51 pm 12:51 Sunny 55 12.8 45 7.2 69 69 WNW 8 13 30.01 1016 10 16 N/A
1:51 pm 13:51 Sunny 57 13.9 43 6.1 60 60 W 10 17 29.98 1015 10 16 N/A
2:51 pm 14:51 Sunny 60 15.6 39 3.9 46 46 NW 15 24 29.96 1015 10 16 N/A
3:51 pm 15:51 Sunny 60 15.6 37 2.8 42 42 WNW 15 24 29.98 1015 10 16 N/A
4:51 pm 16:51 Sunny 58 14.4 36 2.2 44 44 WNW 12 19 29.98 1015 10 16 N/A
5:51 pm 17:51 Clear 52 11.1 37 2.8 57 57 WNW 7 11 30.01 1016 10 16 N/A
6:51 pm 18:51 Clear 50 10 38 3.3 63 63 NNW 12 19 30.03 1017 10 16 N/A
7:51 pm 19:51 Clear 49 9.4 39 3.9 69 69 NW 10 17 30.05 1018 10 16 N/A
8:51 pm 20:51 Clear 46 7.8 38 3.3 73 73 NNW 7 11 30.08 1019 10 16 N/A
9:51 pm 21:51 Clear 43 6.1 38 3.3 82 82 N 6 9 30.09 1019 10 16 N/A
10:51 pm 22:51 Clear 43 6.1 39 3.9 86 86 N N/A 30.08 1019 10 16 N/A
11:51 pm 23:51 Clear 39 3.9 37 2.8 93 93 N N/A 30.08 1019 10 16 N/A

Powered by AerisWeather